Location: Ferchesar
(52.6477°N, 12.4298°E)
Time: 18:39:39
(UTC+01:00)

Transit 4A - Pass Details

Date: 12 December 2021
Orbit: 864 x 980 km, 66.8° (Epoch: 16 January)

Event Time Altitude Azimuth Distance (km) Brightness Sun altitude
Rises 20:37:38 0° 273° (W) 3,518 11.7 -41.2°
Reaches altitude 10° 20:40:33 10° 286° (WNW) 2,598 10.9 -41.6°
Enters shadow 20:43:28 22° 312° (NW) 1,916 9.9 -42.0°
